Home   Weather   36°04'N, 95°52'W   Past weeks
Flag for USA

Past Weather in 36°04'N, 95°52'W, USA — Yesterday and Last 2 Weeks

Now
46 °F

Passing clouds.


Feels Like: 46 °F
Forecast: 68 / 38 °F
Wind: No wind

Location: Tulsa International Airport

Current Time: Mar 22, 2019 at 3:32:16 am

Latest Report: Mar 22, 2019 at 1:53 am


Visibility: 10 mi

Pressure: 30.19 "Hg

Humidity: 61%

Dew Point: 33 °F

Location of 36°04'N, 95°52'WLocation

Past Weather in 36°04'N, 95°52'W — Graph

°F

36°04'N, 95°52'W Temperature Yesterday

Maximum temperature yesterday: 66 °F (at 3:53 pm)
Minimum temperature yesterday: 40 °F (at 7:53 am)
Average temperature yesterday: 53 °F

High & Low Weather Summary for the Past Weeks

 TemperatureHumidityPressure
High71 °F (Mar 19, 3:53 pm)100% (Mar 13, 9:05 am)30.50 "Hg (Mar 13, 9:05 am)
Low28 °F (Mar 16, 4:53 am)22% (Mar 17, 4:53 pm)29.29 "Hg (Mar 13, 5:53 pm)
Average51 °F63%30.07 "Hg
* Reported Mar 7 12:53 am — Mar 22 1:53 am, 36°04'N, 95°52'W. Weather by CustomWeather, © 2019

Note: Actual official high and low records may vary slightly from our data, if they occured in-between our weather recording intervals... More about our weather records

Advertising

36°04'N, 95°52'W Weather History for the Previous 24 Hours

Scroll right to see more
 ConditionsComfort  
Time TempWeatherWind HumidityBarometerVisibility
1:53 am
Fri, Mar 22
46 °FPassing clouds.No wind61%30.19 "Hg10 mi
12:53 am48 °FPassing clouds.5 mph63%30.18 "Hg10 mi
11:53 pm
Thu, Mar 21
49 °FPassing clouds.3 mph55%30.18 "Hg10 mi
10:53 pm51 °FPassing clouds.3 mph48%30.17 "Hg10 mi
9:53 pm53 °FHigh level clouds.3 mph47%30.16 "Hg10 mi
8:53 pm59 °FHigh level clouds.3 mph33%30.15 "Hg10 mi
7:53 pm60 °FPassing clouds.5 mph32%30.15 "Hg10 mi
5:53 pm66 °FPassing clouds.9 mph27%30.15 "Hg10 mi
4:53 pm66 °FPassing clouds.6 mph28%30.16 "Hg10 mi
3:53 pm66 °FPassing clouds.10 mph28%30.17 "Hg10 mi
2:53 pm64 °FSunny.5 mph33%30.19 "Hg10 mi
1:53 pm62 °FSunny.6 mph37%30.21 "Hg10 mi
12:53 pm59 °FSunny.7 mph41%30.22 "Hg10 mi
11:53 am57 °FSunny.7 mph49%30.24 "Hg10 mi
10:53 am54 °FSunny.12 mph57%30.24 "Hg10 mi
9:53 am51 °FSunny.7 mph63%30.23 "Hg10 mi
8:53 am46 °FSunny.9 mph77%30.22 "Hg10 mi
7:53 am40 °FSunny.6 mph80%30.21 "Hg10 mi
6:53 am42 °FClear.5 mph73%30.19 "Hg10 mi
5:53 am41 °FClear.6 mph74%30.18 "Hg10 mi
4:53 am41 °FClear.7 mph70%30.16 "Hg10 mi
3:53 am45 °FClear.3 mph58%30.14 "Hg10 mi
Weather by CustomWeather, © 2019

See weather overview